Time,TemperatureF,DewpointF,PressureIn,WindDirection,WindDirectionDegrees,WindSpeedMPH,WindSpeedGustMPH,Humidity,HourlyPrecipIn,Conditions,Clouds,dailyrainin,SoftwareType,DateUTC
2013-02-04 00:05:00,41.3,30.4,29.85,NNW,345,0.0,23.0,65,0.00,,,0.00,Wunderground v.1.15,2013-02-04 06:05:00,
2013-02-04 00:10:00,41.2,30.7,29.85,NNW,345,0.0,23.0,66,0.00,,,0.00,Wunderground v.1.15,2013-02-04 06:10:00,
2013-02-04 00:20:00,41.1,30.2,29.85,NNW,345,0.0,23.0,65,0.00,,,0.00,Wunderground v.1.15,2013-02-04 06:20:00,
2013-02-04 00:25:00,41.1,30.2,29.85,NNW,345,0.0,23.0,65,0.00,,,0.00,Wunderground v.1.15,2013-02-04 06:25:00,
2013-02-04 00:30:00,41.2,29.9,29.85,NNW,345,0.0,23.0,64,0.00,,,0.00,Wunderground v.1.15,2013-02-04 06:30:00,
2013-02-04 00:35:00,41.5,29.8,29.85,NNW,345,0.0,23.0,63,0.00,,,0.00,Wunderground v.1.15,2013-02-04 06:35:00,
2013-02-04 00:40:00,41.9,29.4,29.85,NNW,345,0.0,23.0,61,0.00,,,0.00,Wunderground v.1.15,2013-02-04 06:40:00,
2013-02-04 00:50:00,42.1,29.6,29.84,NNW,345,0.0,23.0,61,0.00,,,0.00,Wunderground v.1.15,2013-02-04 06:50:00,
2013-02-04 01:00:00,42.3,29.4,29.84,NNW,345,0.0,23.0,60,0.00,,,0.00,Wunderground v.1.15,2013-02-04 07:00:00,
2013-02-04 01:05:00,42.5,29.6,29.84,NNW,345,0.0,23.0,60,0.00,,,0.00,Wunderground v.1.15,2013-02-04 07:05:00,
2013-02-04 01:10:00,42.6,29.7,29.84,NNW,345,0.0,23.0,60,0.00,,,0.00,Wunderground v.1.15,2013-02-04 07:10:00,
2013-02-04 01:15:00,42.6,29.7,29.83,NNW,345,0.0,23.0,60,0.00,,,0.00,Wunderground v.1.15,2013-02-04 07:15:00,
2013-02-04 01:20:00,42.7,29.4,29.83,NNW,345,0.0,23.0,59,0.00,,,0.00,Wunderground v.1.15,2013-02-04 07:20:00,
2013-02-04 01:30:00,42.8,29.5,29.84,NNW,345,0.0,23.0,59,0.00,,,0.00,Wunderground v.1.15,2013-02-04 07:30:00,
2013-02-04 01:35:00,42.8,29.5,29.84,NNW,345,0.0,23.0,59,0.00,,,0.00,Wunderground v.1.15,2013-02-04 07:35:00,
2013-02-04 01:40:00,42.7,29.4,29.84,NNW,345,0.0,23.0,59,0.00,,,0.00,Wunderground v.1.15,2013-02-04 07:40:00,
2013-02-04 01:45:00,42.7,29.4,29.83,NNW,345,0.0,23.0,59,0.00,,,0.00,Wunderground v.1.15,2013-02-04 07:45:00,
2013-02-04 01:55:00,42.9,29.1,29.83,NNW,345,0.0,23.0,58,0.00,,,0.00,Wunderground v.1.15,2013-02-04 07:55:00,
2013-02-04 02:05:00,42.9,29.1,29.83,NNW,345,0.0,23.0,58,0.00,,,0.00,Wunderground v.1.15,2013-02-04 08:05:00,
2013-02-04 02:10:00,42.8,29.0,29.83,NNW,345,0.0,23.0,58,0.00,,,0.00,Wunderground v.1.15,2013-02-04 08:10:00,
2013-02-04 02:15:00,42.8,29.0,29.83,NNW,345,0.0,23.0,58,0.00,,,0.00,Wunderground v.1.15,2013-02-04 08:15:00,
2013-02-04 02:20:00,42.7,29.4,29.83,NNW,345,0.0,23.0,59,0.00,,,0.00,Wunderground v.1.15,2013-02-04 08:20:00,
2013-02-04 02:25:00,42.5,29.2,29.83,NNW,345,0.0,23.0,59,0.00,,,0.00,Wunderground v.1.15,2013-02-04 08:25:00,
2013-02-04 02:35:00,42.2,28.9,29.84,NNW,345,0.0,23.0,59,0.00,,,0.00,Wunderground v.1.15,2013-02-04 08:35:00,
2013-02-04 02:40:00,42.1,29.2,29.84,NNW,345,0.0,23.0,60,0.00,,,0.00,Wunderground v.1.15,2013-02-04 08:40:00,
2013-02-04 02:45:00,41.9,29.4,29.84,NNW,345,0.0,23.0,61,0.00,,,0.00,Wunderground v.1.15,2013-02-04 08:45:00,
2013-02-04 02:50:00,41.6,29.1,29.84,NNW,345,0.0,23.0,61,0.00,,,0.00,Wunderground v.1.15,2013-02-04 08:50:00,
2013-02-04 03:00:00,41.3,29.3,29.83,NNW,345,0.0,23.0,62,0.00,,,0.00,Wunderground v.1.15,2013-02-04 09:00:00,
2013-02-04 03:10:00,41.1,29.5,29.83,NNW,345,0.0,23.0,63,0.00,,,0.00,Wunderground v.1.15,2013-02-04 09:10:00,
2013-02-04 03:15:00,41.2,29.2,29.82,NE,37,0.0,23.0,62,0.00,,,0.00,Wunderground v.1.15,2013-02-04 09:15:00,
2013-02-04 03:20:00,41.3,29.3,29.82,NE,39,0.0,23.0,62,0.00,,,0.00,Wunderground v.1.15,2013-02-04 09:20:00,
2013-02-04 03:25:00,41.2,29.2,29.82,NE,42,0.0,23.0,62,0.00,,,0.00,Wunderground v.1.15,2013-02-04 09:25:00,
2013-02-04 03:30:00,41.2,29.2,29.82,ENE,65,0.0,23.0,62,0.00,,,0.00,Wunderground v.1.15,2013-02-04 09:30:00,
2013-02-04 03:35:00,41.1,29.1,29.82,East,101,0.0,23.0,62,0.00,,,0.00,Wunderground v.1.15,2013-02-04 09:35:00,
2013-02-04 03:45:00,41.2,29.2,29.81,East,101,0.0,23.0,62,0.00,,,0.00,Wunderground v.1.15,2013-02-04 09:45:00,
2013-02-04 03:50:00,41.2,29.2,29.81,SE,145,0.0,23.0,62,0.00,,,0.00,Wunderground v.1.15,2013-02-04 09:50:00,
2013-02-04 03:55:00,41.2,29.2,29.81,SE,146,1.0,23.0,62,0.00,,,0.00,Wunderground v.1.15,2013-02-04 09:55:00,
2013-02-04 04:05:00,41.3,29.3,29.81,SSE,147,1.0,23.0,62,0.00,,,0.00,Wunderground v.1.15,2013-02-04 10:05:00,
2013-02-04 04:10:00,41.3,28.9,29.81,SE,146,1.0,1.0,61,0.00,,,0.00,Wunderground v.1.15,2013-02-04 10:10:00,
2013-02-04 04:20:00,41.2,29.2,29.80,SSE,158,0.0,23.0,62,0.00,,,0.00,Wunderground v.1.15,2013-02-04 10:20:00,
2013-02-04 04:25:00,41.1,29.1,29.80,SSE,157,0.0,23.0,62,0.00,,,0.00,Wunderground v.1.15,2013-02-04 10:25:00,
2013-02-04 04:30:00,41.2,29.2,29.80,SSE,158,1.0,23.0,62,0.00,,,0.00,Wunderground v.1.15,2013-02-04 10:30:00,
2013-02-04 04:35:00,41.2,29.2,29.80,SSE,158,1.0,23.0,62,0.00,,,0.00,Wunderground v.1.15,2013-02-04 10:35:00,
2013-02-04 04:40:00,41.1,29.1,29.80,SSE,158,0.0,23.0,62,0.00,,,0.00,Wunderground v.1.15,2013-02-04 10:40:00,
2013-02-04 04:50:00,41.3,28.9,29.80,SSE,158,0.0,23.0,61,0.00,,,0.00,Wunderground v.1.15,2013-02-04 10:50:00,
2013-02-04 05:00:00,41.1,29.1,29.79,SSE,158,2.0,23.0,62,0.00,,,0.00,Wunderground v.1.15,2013-02-04 11:00:00,
2013-02-04 05:05:00,41.1,29.1,29.79,SSE,158,1.0,23.0,62,0.00,,,0.00,Wunderground v.1.15,2013-02-04 11:05:00,
2013-02-04 05:10:00,41.3,29.3,29.79,SSE,158,0.0,23.0,62,0.00,,,0.00,Wunderground v.1.15,2013-02-04 11:10:00,
2013-02-04 05:15:00,41.4,29.3,29.79,SSE,158,0.0,23.0,62,0.00,,,0.00,Wunderground v.1.15,2013-02-04 11:15:00,
2013-02-04 05:25:00,41.6,29.5,29.79,SSE,161,3.0,23.0,62,0.00,,,0.00,Wunderground v.1.15,2013-02-04 11:25:00,
2013-02-04 05:35:00,41.7,29.6,29.78,SSE,161,3.0,9.0,62,0.00,,,0.00,Wunderground v.1.15,2013-02-04 11:35:00,
2013-02-04 05:40:00,42.0,29.9,29.78,SSE,150,5.0,5.0,62,0.00,,,0.00,Wunderground v.1.15,2013-02-04 11:40:00,
2013-02-04 05:45:00,42.1,29.6,29.77,SSE,161,6.0,6.0,61,0.00,,,0.00,Wunderground v.1.15,2013-02-04 11:45:00,
2013-02-04 05:50:00,42.2,29.7,29.77,SE,137,6.0,6.0,61,0.00,,,0.00,Wunderground v.1.15,2013-02-04 11:50:00,
2013-02-04 06:00:00,42.3,29.8,29.77,SSE,152,4.0,4.0,61,0.00,,,0.00,Wunderground v.1.15,2013-02-04 12:00:00,
2013-02-04 06:05:00,42.3,29.8,29.77,SSE,158,3.0,23.0,61,0.00,,,0.00,Wunderground v.1.15,2013-02-04 12:05:00,
2013-02-04 06:10:00,42.4,29.9,29.77,SSE,153,4.0,23.0,61,0.00,,,0.00,Wunderground v.1.15,2013-02-04 12:10:00,
2013-02-04 06:20:00,42.5,30.0,29.76,SE,144,5.0,5.0,61,0.00,,,0.00,Wunderground v.1.15,2013-02-04 12:20:00,
2013-02-04 06:25:00,42.5,29.6,29.76,SE,134,5.0,7.0,60,0.00,,,0.00,Wunderground v.1.15,2013-02-04 12:25:00,
2013-02-04 06:35:00,42.6,29.7,29.76,SE,145,5.0,23.0,60,0.00,,,0.00,Wunderground v.1.15,2013-02-04 12:35:00,
2013-02-04 06:40:00,42.6,29.7,29.76,SSE,150,5.0,5.0,60,0.00,,,0.00,Wunderground v.1.15,2013-02-04 12:40:00,
2013-02-04 06:45:00,42.6,30.1,29.76,SSE,155,4.0,23.0,61,0.00,,,0.00,Wunderground v.1.15,2013-02-04 12:45:00,
2013-02-04 06:50:00,42.6,29.7,29.76,South,184,5.0,5.0,60,0.00,,,0.00,Wunderground v.1.15,2013-02-04 12:50:00,
2013-02-04 06:55:00,42.7,29.8,29.76,SSE,161,6.0,6.0,60,0.00,,,0.00,Wunderground v.1.15,2013-02-04 12:55:00,
2013-02-04 07:00:00,42.8,29.9,29.75,SE,142,5.0,5.0,60,0.00,,,0.00,Wunderground v.1.15,2013-02-04 13:00:00,
2013-02-04 07:05:00,42.8,29.9,29.75,SSE,159,5.0,23.0,60,0.00,,,0.00,Wunderground v.1.15,2013-02-04 13:05:00,
2013-02-04 07:10:00,42.9,30.0,29.75,SSE,149,5.0,23.0,60,0.00,,,0.00,Wunderground v.1.15,2013-02-04 13:10:00,
2013-02-04 07:15:00,42.9,30.0,29.76,SSE,148,5.0,23.0,60,0.00,,,0.00,Wunderground v.1.15,2013-02-04 13:15:00,
2013-02-04 07:25:00,43.2,29.8,29.76,SSE,158,5.0,23.0,59,0.00,,,0.00,Wunderground v.1.15,2013-02-04 13:25:00,
2013-02-04 07:30:00,43.4,30.0,29.76,SSE,153,6.0,6.0,59,0.00,,,0.00,Wunderground v.1.15,2013-02-04 13:30:00,
2013-02-04 07:35:00,43.5,30.1,29.76,SSE,158,6.0,10.0,59,0.00,,,0.00,Wunderground v.1.15,2013-02-04 13:35:00,
2013-02-04 07:40:00,43.6,30.2,29.76,SSE,156,6.0,23.0,59,0.00,,,0.00,Wunderground v.1.15,2013-02-04 13:40:00,
2013-02-04 07:45:00,43.7,30.3,29.76,South,182,6.0,23.0,59,0.00,,,0.00,Wunderground v.1.15,2013-02-04 13:45:00,
2013-02-04 07:50:00,43.8,30.4,29.76,SSE,165,6.0,6.0,59,0.00,,,0.00,Wunderground v.1.15,2013-02-04 13:50:00,
2013-02-04 07:55:00,43.8,30.4,29.76,SSE,155,5.0,7.0,59,0.00,,,0.00,Wunderground v.1.15,2013-02-04 13:55:00,
2013-02-04 08:00:00,44.0,30.2,29.76,SSE,157,5.0,5.0,58,0.00,,,0.00,Wunderground v.1.15,2013-02-04 14:00:00,
2013-02-04 08:05:00,44.1,30.3,29.76,South,170,6.0,6.0,58,0.00,,,0.00,Wunderground v.1.15,2013-02-04 14:05:00,
2013-02-04 08:10:00,44.2,29.9,29.76,SSE,155,6.0,6.0,57,0.00,,,0.00,Wunderground v.1.15,2013-02-04 14:10:00,
2013-02-04 08:15:00,44.3,30.0,29.77,SSE,158,6.0,7.0,57,0.00,,,0.00,Wunderground v.1.15,2013-02-04 14:15:00,
2013-02-04 08:20:00,44.4,30.1,29.77,SSE,164,6.0,6.0,57,0.00,,,0.00,Wunderground v.1.15,2013-02-04 14:20:00,
2013-02-04 08:30:00,44.6,30.3,29.76,South,181,6.0,23.0,57,0.00,,,0.00,Wunderground v.1.15,2013-02-04 14:30:00,
2013-02-04 08:35:00,44.7,30.8,29.76,South,177,6.0,23.0,58,0.00,,,0.00,Wunderground v.1.15,2013-02-04 14:35:00,
2013-02-04 08:40:00,44.8,30.5,29.76,SSW,192,6.0,23.0,57,0.00,,,0.00,Wunderground v.1.15,2013-02-04 14:40:00,
2013-02-04 08:50:00,45.1,30.8,29.76,SSE,148,4.0,23.0,57,0.00,,,0.00,Wunderground v.1.15,2013-02-04 14:50:00,
2013-02-04 08:55:00,45.2,30.9,29.76,SSE,166,5.0,23.0,57,0.00,,,0.00,Wunderground v.1.15,2013-02-04 14:55:00,
2013-02-04 09:00:00,45.2,31.3,29.76,South,183,5.0,5.0,58,0.00,,,0.00,Wunderground v.1.15,2013-02-04 15:00:00,
2013-02-04 09:05:00,45.3,31.4,29.76,South,172,5.0,23.0,58,0.00,,,0.00,Wunderground v.1.15,2013-02-04 15:05:00,
2013-02-04 09:10:00,45.4,31.0,29.76,SSE,165,5.0,23.0,57,0.00,,,0.00,Wunderground v.1.15,2013-02-04 15:10:00,
2013-02-04 09:15:00,45.6,31.2,29.76,SSE,163,6.0,23.0,57,0.00,,,0.00,Wunderground v.1.15,2013-02-04 15:15:00,
2013-02-04 09:25:00,45.9,31.5,29.76,SSE,163,5.0,8.0,57,0.00,,,0.00,Wunderground v.1.15,2013-02-04 15:25:00,
2013-02-04 09:35:00,46.4,32.0,29.76,South,173,6.0,23.0,57,0.00,,,0.00,Wunderground v.1.15,2013-02-04 15:35:00,
2013-02-04 09:40:00,46.6,31.7,29.76,South,178,7.0,7.0,56,0.00,,,0.00,Wunderground v.1.15,2013-02-04 15:40:00,
2013-02-04 09:45:00,46.9,32.0,29.76,South,190,6.0,23.0,56,0.00,,,0.00,Wunderground v.1.15,2013-02-04 15:45:00,
2013-02-04 09:50:00,47.0,32.1,29.76,SSW,192,5.0,23.0,56,0.00,,,0.00,Wunderground v.1.15,2013-02-04 15:50:00,
2013-02-04 09:55:00,47.3,31.9,29.76,SSE,165,6.0,23.0,55,0.00,,,0.00,Wunderground v.1.15,2013-02-04 15:55:00,
2013-02-04 10:00:00,47.6,32.2,29.76,SSW,194,6.0,23.0,55,0.00,,,0.00,Wunderground v.1.15,2013-02-04 16:00:00,
2013-02-04 10:05:00,48.0,32.6,29.76,SSW,198,6.0,23.0,55,0.00,,,0.00,Wunderground v.1.15,2013-02-04 16:05:00,
2013-02-04 10:10:00,48.4,32.0,29.76,South,183,6.0,23.0,53,0.00,,,0.00,Wunderground v.1.15,2013-02-04 16:10:00,
2013-02-04 10:15:00,48.7,32.3,29.76,South,178,5.0,23.0,53,0.00,,,0.00,Wunderground v.1.15,2013-02-04 16:15:00,
2013-02-04 10:20:00,48.8,32.4,29.76,South,191,6.0,6.0,53,0.00,,,0.00,Wunderground v.1.15,2013-02-04 16:20:00,
2013-02-04 10:30:00,49.1,32.2,29.76,SSW,206,7.0,7.0,52,0.00,,,0.00,Wunderground v.1.15,2013-02-04 16:30:00,
2013-02-04 10:40:00,49.5,32.6,29.76,South,190,6.0,23.0,52,0.00,,,0.00,Wunderground v.1.15,2013-02-04 16:40:00,
2013-02-04 10:45:00,49.9,33.0,29.76,SW,224,6.0,23.0,52,0.00,,,0.00,Wunderground v.1.15,2013-02-04 16:45:00,
2013-02-04 10:50:00,50.5,33.0,29.76,SSW,206,7.0,23.0,51,0.00,,,0.00,Wunderground v.1.15,2013-02-04 16:50:00,
2013-02-04 10:55:00,50.7,33.2,29.76,SSW,193,8.0,23.0,51,0.00,,,0.00,Wunderground v.1.15,2013-02-04 16:55:00,
2013-02-04 11:00:00,50.9,33.4,29.76,SSW,196,7.0,23.0,51,0.00,,,0.00,Wunderground v.1.15,2013-02-04 17:00:00,
2013-02-04 11:05:00,51.8,33.7,29.76,SW,218,6.0,23.0,50,0.00,,,0.00,Wunderground v.1.15,2013-02-04 17:05:00,
2013-02-04 11:10:00,52.4,33.8,29.76,South,179,5.0,23.0,49,0.00,,,0.00,Wunderground v.1.15,2013-02-04 17:10:00,
2013-02-04 11:15:00,52.9,33.7,29.76,SSW,211,5.0,23.0,48,0.00,,,0.00,Wunderground v.1.15,2013-02-04 17:15:00,
2013-02-04 11:20:00,53.5,33.7,29.76,SSW,198,6.0,23.0,47,0.00,,,0.00,Wunderground v.1.15,2013-02-04 17:20:00,
2013-02-04 11:30:00,53.6,33.8,29.75,SSE,163,9.0,23.0,47,0.00,,,0.00,Wunderground v.1.15,2013-02-04 17:30:00,
2013-02-04 11:35:00,54.2,33.9,29.75,SSW,207,8.0,23.0,46,0.00,,,0.00,Wunderground v.1.15,2013-02-04 17:35:00,
2013-02-04 11:40:00,54.9,34.5,29.75,SSW,213,8.0,8.0,46,0.00,,,0.00,Wunderground v.1.15,2013-02-04 17:40:00,
2013-02-04 11:45:00,55.5,34.5,29.74,South,175,6.0,23.0,45,0.00,,,0.00,Wunderground v.1.15,2013-02-04 17:45:00,
2013-02-04 11:50:00,56.1,34.5,29.74,South,190,6.0,23.0,44,0.00,,,0.00,Wunderground v.1.15,2013-02-04 17:50:00,
2013-02-04 11:55:00,56.7,34.4,29.74,SSW,204,7.0,23.0,43,0.00,,,0.00,Wunderground v.1.15,2013-02-04 17:55:00,
2013-02-04 12:00:00,57.4,34.5,29.73,WSW,241,7.0,23.0,42,0.00,,,0.00,Wunderground v.1.15,2013-02-04 18:00:00,
2013-02-04 12:05:00,57.7,34.1,29.73,WSW,256,6.0,23.0,41,0.00,,,0.00,Wunderground v.1.15,2013-02-04 18:05:00,
2013-02-04 12:15:00,57.8,34.8,29.72,SSW,195,7.0,23.0,42,0.00,,,0.00,Wunderground v.1.15,2013-02-04 18:15:00,
2013-02-04 12:25:00,57.9,34.9,29.72,SW,219,8.0,23.0,42,0.00,,,0.00,Wunderground v.1.15,2013-02-04 18:25:00,
2013-02-04 12:30:00,58.4,35.4,29.72,SW,219,7.0,23.0,42,0.00,,,0.00,Wunderground v.1.15,2013-02-04 18:30:00,
2013-02-04 12:35:00,58.6,35.0,29.72,SSW,193,7.0,23.0,41,0.00,,,0.00,Wunderground v.1.15,2013-02-04 18:35:00,
2013-02-04 12:40:00,59.0,35.3,29.72,SSW,213,7.0,23.0,41,0.00,,,0.00,Wunderground v.1.15,2013-02-04 18:40:00,
2013-02-04 12:50:00,58.6,35.6,29.70,SW,222,7.0,23.0,42,0.00,,,0.00,Wunderground v.1.15,2013-02-04 18:50:00,
2013-02-04 12:55:00,58.5,35.5,29.70,South,187,7.0,23.0,42,0.00,,,0.00,Wunderground v.1.15,2013-02-04 18:55:00,
2013-02-04 13:00:00,58.8,35.1,29.70,SW,215,9.0,23.0,41,0.00,,,0.00,Wunderground v.1.15,2013-02-04 19:00:00,
2013-02-04 13:05:00,59.0,35.3,29.70,SSW,211,11.0,23.0,41,0.00,,,0.00,Wunderground v.1.15,2013-02-04 19:05:00,
2013-02-04 13:10:00,59.0,35.9,29.70,WSW,254,10.0,10.0,42,0.00,,,0.00,Wunderground v.1.15,2013-02-04 19:10:00,
2013-02-04 13:20:00,58.2,35.2,29.69,SSW,192,10.0,23.0,42,0.00,,,0.00,Wunderground v.1.15,2013-02-04 19:20:00,
2013-02-04 13:30:00,57.5,35.2,29.69,SSW,201,10.0,23.0,43,0.00,,,0.00,Wunderground v.1.15,2013-02-04 19:30:00,
2013-02-04 13:35:00,57.3,35.6,29.69,WSW,248,9.0,23.0,44,0.00,,,0.00,Wunderground v.1.15,2013-02-04 19:35:00,
2013-02-04 13:40:00,56.8,35.1,29.69,SW,219,9.0,23.0,44,0.00,,,0.00,Wunderground v.1.15,2013-02-04 19:40:00,
2013-02-04 13:45:00,56.3,35.2,29.69,South,189,10.0,23.0,45,0.00,,,0.00,Wunderground v.1.15,2013-02-04 19:45:00,
2013-02-04 13:55:00,55.6,35.1,29.69,SSW,203,9.0,23.0,46,0.00,,,0.00,Wunderground v.1.15,2013-02-04 19:55:00,
2013-02-04 14:00:00,55.4,35.5,29.69,WSW,240,9.0,9.0,47,0.00,,,0.00,Wunderground v.1.15,2013-02-04 20:00:00,
2013-02-04 14:05:00,55.3,35.4,29.69,WSW,240,9.0,23.0,47,0.00,,,0.00,Wunderground v.1.15,2013-02-04 20:05:00,
2013-02-04 14:10:00,55.2,35.8,29.69,WSW,240,7.0,7.0,48,0.00,,,0.00,Wunderground v.1.15,2013-02-04 20:10:00,
2013-02-04 14:15:00,55.0,36.7,29.69,SW,234,6.0,23.0,50,0.00,,,0.00,Wunderground v.1.15,2013-02-04 20:15:00,
2013-02-04 14:20:00,54.8,36.5,29.69,WSW,249,5.0,23.0,50,0.00,,,0.00,Wunderground v.1.15,2013-02-04 20:20:00,
2013-02-04 14:30:00,54.4,37.1,29.68,WSW,240,5.0,5.0,52,0.00,,,0.00,Wunderground v.1.15,2013-02-04 20:30:00,
2013-02-04 14:35:00,54.3,37.0,29.68,WSW,240,4.0,23.0,52,0.00,,,0.00,Wunderground v.1.15,2013-02-04 20:35:00,
2013-02-04 14:40:00,54.3,37.5,29.68,WSW,240,2.0,23.0,53,0.00,,,0.00,Wunderground v.1.15,2013-02-04 20:40:00,
2013-02-04 14:45:00,54.3,37.0,29.67,SSW,198,3.0,23.0,52,0.00,,,0.00,Wunderground v.1.15,2013-02-04 20:45:00,
2013-02-04 14:50:00,54.3,37.0,29.67,SSW,213,6.0,23.0,52,0.00,,,0.00,Wunderground v.1.15,2013-02-04 20:50:00,
2013-02-04 14:55:00,54.3,38.0,29.67,SSW,207,7.0,23.0,54,0.00,,,0.00,Wunderground v.1.15,2013-02-04 20:55:00,
2013-02-04 15:05:00,54.0,38.6,29.68,SW,233,7.0,10.0,56,0.00,,,0.00,Wunderground v.1.15,2013-02-04 21:05:00,
2013-02-04 15:10:00,53.8,39.4,29.68,WSW,238,6.0,23.0,58,0.00,,,0.00,Wunderground v.1.15,2013-02-04 21:10:00,
2013-02-04 15:15:00,53.5,39.9,29.68,SW,233,6.0,23.0,60,0.00,,,0.00,Wunderground v.1.15,2013-02-04 21:15:00,
2013-02-04 15:20:00,53.2,40.1,29.68,SSW,198,6.0,23.0,61,0.00,,,0.00,Wunderground v.1.15,2013-02-04 21:20:00,
2013-02-04 15:25:00,52.9,39.8,29.68,WSW,240,7.0,23.0,61,0.00,,,0.00,Wunderground v.1.15,2013-02-04 21:25:00,
2013-02-04 15:35:00,52.4,39.8,29.68,SW,231,6.0,23.0,62,0.00,,,0.00,Wunderground v.1.15,2013-02-04 21:35:00,
2013-02-04 15:40:00,52.3,40.9,29.68,SW,234,5.0,5.0,65,0.00,,,0.00,Wunderground v.1.15,2013-02-04 21:40:00,
2013-02-04 15:45:00,52.0,41.0,29.68,WSW,238,3.0,23.0,66,0.00,,,0.00,Wunderground v.1.15,2013-02-04 21:45:00,
2013-02-04 15:50:00,51.8,41.2,29.68,WSW,238,3.0,3.0,67,0.00,,,0.00,Wunderground v.1.15,2013-02-04 21:50:00,
2013-02-04 15:55:00,51.5,41.3,29.68,WSW,238,3.0,4.0,68,0.00,,,0.00,Wunderground v.1.15,2013-02-04 21:55:00,
2013-02-04 16:00:00,51.4,41.6,29.67,WSW,238,3.0,3.0,69,0.00,,,0.00,Wunderground v.1.15,2013-02-04 22:00:00,
2013-02-04 16:10:00,51.2,42.5,29.67,WSW,238,0.0,23.0,72,0.00,,,0.01,Wunderground v.1.15,2013-02-04 22:10:00,
2013-02-04 16:15:00,51.1,42.4,29.67,WSW,238,0.0,23.0,72,0.00,,,0.01,Wunderground v.1.15,2013-02-04 22:15:00,
2013-02-04 16:20:00,51.1,42.7,29.67,WSW,238,0.0,23.0,73,0.00,,,0.01,Wunderground v.1.15,2013-02-04 22:20:00,
2013-02-04 16:30:00,50.9,42.9,29.67,WSW,238,0.0,23.0,74,0.00,,,0.01,Wunderground v.1.15,2013-02-04 22:30:00,
2013-02-04 16:35:00,50.8,43.2,29.67,WSW,238,0.0,23.0,75,0.00,,,0.01,Wunderground v.1.15,2013-02-04 22:35:00,
2013-02-04 16:45:00,50.3,43.7,29.67,WSW,238,0.0,23.0,78,0.00,,,0.01,Wunderground v.1.15,2013-02-04 22:45:00,
2013-02-04 16:50:00,50.0,43.7,29.67,WSW,238,0.0,23.0,79,0.00,,,0.01,Wunderground v.1.15,2013-02-04 22:50:00,
2013-02-04 16:55:00,49.8,43.9,29.67,South,171,2.0,23.0,80,0.00,,,0.01,Wunderground v.1.15,2013-02-04 22:55:00,
2013-02-04 17:00:00,49.6,44.0,29.66,South,171,4.0,4.0,81,0.00,,,0.01,Wunderground v.1.15,2013-02-04 23:00:00,
2013-02-04 17:05:00,49.6,43.7,29.66,South,171,2.0,23.0,80,0.00,,,0.01,Wunderground v.1.15,2013-02-04 23:05:00,
2013-02-04 17:10:00,49.8,43.5,29.66,South,171,2.0,23.0,79,0.00,,,0.01,Wunderground v.1.15,2013-02-04 23:10:00,
2013-02-04 17:20:00,49.8,43.5,29.67,South,180,4.0,23.0,79,0.00,,,0.02,Wunderground v.1.15,2013-02-04 23:20:00,
2013-02-04 17:25:00,49.6,43.4,29.67,South,179,3.0,23.0,79,0.00,,,0.02,Wunderground v.1.15,2013-02-04 23:25:00,
2013-02-04 17:35:00,49.4,43.2,29.66,South,187,5.0,23.0,79,0.00,,,0.03,Wunderground v.1.15,2013-02-04 23:35:00,
2013-02-04 17:40:00,49.3,43.1,29.66,South,179,5.0,23.0,79,0.00,,,0.03,Wunderground v.1.15,2013-02-04 23:40:00,
2013-02-04 17:45:00,49.2,43.3,29.67,South,182,6.0,23.0,80,0.00,,,0.03,Wunderground v.1.15,2013-02-04 23:45:00,
2013-02-04 17:55:00,48.7,43.5,29.67,South,169,6.0,23.0,82,0.00,,,0.03,Wunderground v.1.15,2013-02-04 23:55:00,
2013-02-04 18:00:00,48.7,43.5,29.66,South,181,5.0,5.0,82,0.00,,,0.03,Wunderground v.1.15,2013-02-05 00:00:00,
2013-02-04 18:05:00,48.7,43.5,29.66,South,171,4.0,23.0,82,0.00,,,0.03,Wunderground v.1.15,2013-02-05 00:05:00,
2013-02-04 18:10:00,48.7,43.5,29.66,South,191,4.0,23.0,82,0.00,,,0.03,Wunderground v.1.15,2013-02-05 00:10:00,
2013-02-04 18:15:00,48.9,43.3,29.66,SSE,151,5.0,23.0,81,0.00,,,0.03,Wunderground v.1.15,2013-02-05 00:15:00,
2013-02-04 18:25:00,49.2,43.3,29.66,South,187,5.0,7.0,80,0.00,,,0.03,Wunderground v.1.15,2013-02-05 00:25:00,
2013-02-04 18:35:00,49.5,43.3,29.66,South,180,6.0,7.0,79,0.00,,,0.03,Wunderground v.1.15,2013-02-05 00:35:00,
2013-02-04 18:40:00,49.5,43.3,29.66,South,188,5.0,23.0,79,0.00,,,0.03,Wunderground v.1.15,2013-02-05 00:40:00,
2013-02-04 18:45:00,49.5,43.3,29.66,South,184,5.0,23.0,79,0.00,,,0.03,Wunderground v.1.15,2013-02-05 00:45:00,
2013-02-04 18:50:00,49.6,43.0,29.66,South,189,5.0,23.0,78,0.00,,,0.03,Wunderground v.1.15,2013-02-05 00:50:00,
2013-02-04 19:00:00,49.9,43.0,29.66,SSW,209,6.0,6.0,77,0.00,,,0.03,Wunderground v.1.15,2013-02-05 01:00:00,
2013-02-04 19:05:00,49.9,43.0,29.66,SSW,207,5.0,23.0,77,0.00,,,0.03,Wunderground v.1.15,2013-02-05 01:05:00,
2013-02-04 19:10:00,49.9,43.0,29.66,SSW,192,4.0,4.0,77,0.00,,,0.03,Wunderground v.1.15,2013-02-05 01:10:00,
2013-02-04 19:15:00,49.9,43.0,29.67,NNW,329,3.0,23.0,77,0.00,,,0.03,Wunderground v.1.15,2013-02-05 01:15:00,
2013-02-04 19:25:00,50.0,43.1,29.67,NNW,342,3.0,23.0,77,0.00,,,0.03,Wunderground v.1.15,2013-02-05 01:25:00,
2013-02-04 19:35:00,49.9,43.3,29.67,NNW,342,0.0,23.0,78,0.00,,,0.03,Wunderground v.1.15,2013-02-05 01:35:00,
2013-02-04 19:40:00,49.8,43.5,29.67,NNW,343,0.0,23.0,79,0.00,,,0.04,Wunderground v.1.15,2013-02-05 01:40:00,
2013-02-04 19:45:00,49.6,43.4,29.68,NNW,343,0.0,23.0,79,0.00,,,0.04,Wunderground v.1.15,2013-02-05 01:45:00,
2013-02-04 19:50:00,49.4,43.5,29.68,NNW,343,0.0,23.0,80,0.06,,,0.05,Wunderground v.1.15,2013-02-05 01:50:00,
2013-02-04 19:55:00,49.1,43.8,29.68,NNW,343,0.0,23.0,82,0.13,,,0.06,Wunderground v.1.15,2013-02-05 01:55:00,
2013-02-04 20:00:00,48.8,43.9,29.69,NNW,343,0.0,23.0,83,0.09,,,0.06,Wunderground v.1.15,2013-02-05 02:00:00,
2013-02-04 20:10:00,48.4,44.1,29.69,NNW,342,0.0,23.0,85,0.04,,,0.07,Wunderground v.1.15,2013-02-05 02:10:00,
2013-02-04 20:20:00,48.3,44.3,29.69,NNW,343,0.0,23.0,86,0.04,,,0.07,Wunderground v.1.15,2013-02-05 02:20:00,
2013-02-04 20:25:00,48.1,44.1,29.69,NW,313,0.0,23.0,86,0.04,,,0.07,Wunderground v.1.15,2013-02-05 02:25:00,
2013-02-04 20:30:00,48.1,44.4,29.69,NW,313,0.0,23.0,87,0.00,,,0.07,Wunderground v.1.15,2013-02-05 02:30:00,
2013-02-04 20:35:00,48.1,44.4,29.69,NW,313,0.0,23.0,87,0.00,,,0.07,Wunderground v.1.15,2013-02-05 02:35:00,
2013-02-04 20:45:00,47.9,44.5,29.69,NW,313,0.0,23.0,88,0.00,,,0.07,Wunderground v.1.15,2013-02-05 02:45:00,
2013-02-04 20:50:00,47.9,44.5,29.69,NW,313,0.0,23.0,88,0.00,,,0.07,Wunderground v.1.15,2013-02-05 02:50:00,
2013-02-04 20:55:00,47.9,44.5,29.69,NW,313,0.0,23.0,88,0.00,,,0.07,Wunderground v.1.15,2013-02-05 02:55:00,
2013-02-04 21:00:00,47.9,44.8,29.70,NW,313,0.0,23.0,89,0.00,,,0.07,Wunderground v.1.15,2013-02-05 03:00:00,
2013-02-04 21:10:00,47.9,44.8,29.70,NW,313,0.0,23.0,89,0.00,,,0.07,Wunderground v.1.15,2013-02-05 03:10:00,
2013-02-04 21:20:00,47.8,45.0,29.69,NW,313,0.0,23.0,90,0.00,,,0.07,Wunderground v.1.15,2013-02-05 03:20:00,
2013-02-04 21:25:00,47.9,44.8,29.69,SW,223,1.0,23.0,89,0.00,,,0.07,Wunderground v.1.15,2013-02-05 03:25:00,
2013-02-04 21:30:00,48.0,44.9,29.69,SW,223,1.0,23.0,89,0.00,,,0.07,Wunderground v.1.15,2013-02-05 03:30:00,
2013-02-04 21:35:00,48.1,45.0,29.69,SW,222,0.0,23.0,89,0.00,,,0.07,Wunderground v.1.15,2013-02-05 03:35:00,
2013-02-04 21:40:00,48.1,45.0,29.69,SW,221,0.0,23.0,89,0.00,,,0.07,Wunderground v.1.15,2013-02-05 03:40:00,
2013-02-04 21:50:00,48.2,44.8,29.69,SW,221,0.0,23.0,88,0.00,,,0.07,Wunderground v.1.15,2013-02-05 03:50:00,
2013-02-04 21:55:00,48.3,44.9,29.69,SW,221,1.0,23.0,88,0.00,,,0.07,Wunderground v.1.15,2013-02-05 03:55:00,
2013-02-04 22:00:00,48.3,44.9,29.69,SW,221,1.0,1.0,88,0.00,,,0.07,Wunderground v.1.15,2013-02-05 04:00:00,
2013-02-04 22:10:00,48.4,45.0,29.69,SW,221,1.0,1.0,88,0.00,,,0.07,Wunderground v.1.15,2013-02-05 04:10:00,
2013-02-04 22:15:00,48.4,44.7,29.69,SW,221,1.0,23.0,87,0.00,,,0.07,Wunderground v.1.15,2013-02-05 04:15:00,
2013-02-04 22:25:00,48.5,45.1,29.69,SW,221,0.0,23.0,88,0.00,,,0.07,Wunderground v.1.15,2013-02-05 04:25:00,
2013-02-04 22:30:00,48.5,45.1,29.69,SW,221,0.0,23.0,88,0.00,,,0.07,Wunderground v.1.15,2013-02-05 04:30:00,
2013-02-04 22:35:00,48.5,45.1,29.69,SW,221,0.0,23.0,88,0.00,,,0.07,Wunderground v.1.15,2013-02-05 04:35:00,
2013-02-04 22:40:00,48.4,45.0,29.69,SW,221,1.0,23.0,88,0.00,,,0.07,Wunderground v.1.15,2013-02-05 04:40:00,
2013-02-04 22:45:00,48.5,45.1,29.69,SW,221,1.0,23.0,88,0.00,,,0.07,Wunderground v.1.15,2013-02-05 04:45:00,
2013-02-04 22:55:00,48.4,45.0,29.69,SW,220,0.0,23.0,88,0.00,,,0.07,Wunderground v.1.15,2013-02-05 04:55:00,
2013-02-04 23:00:00,48.5,45.1,29.68,SW,219,0.0,23.0,88,0.00,,,0.07,Wunderground v.1.15,2013-02-05 05:00:00,
2013-02-04 23:05:00,48.5,45.1,29.68,SSW,206,1.0,23.0,88,0.00,,,0.07,Wunderground v.1.15,2013-02-05 05:05:00,
2013-02-04 23:10:00,48.5,45.1,29.68,SSW,207,1.0,1.0,88,0.00,,,0.07,Wunderground v.1.15,2013-02-05 05:10:00,
2013-02-04 23:15:00,48.5,45.1,29.68,SSW,208,2.0,2.0,88,0.00,,,0.07,Wunderground v.1.15,2013-02-05 05:15:00,
2013-02-04 23:20:00,48.5,45.1,29.68,SSW,208,2.0,2.0,88,0.00,,,0.07,Wunderground v.1.15,2013-02-05 05:20:00,
2013-02-04 23:25:00,48.5,45.1,29.68,SW,226,1.0,5.0,88,0.00,,,0.07,Wunderground v.1.15,2013-02-05 05:25:00,
2013-02-04 23:35:00,48.6,45.2,29.68,SW,214,2.0,23.0,88,0.00,,,0.07,Wunderground v.1.15,2013-02-05 05:35:00,
2013-02-04 23:40:00,48.6,45.2,29.68,SW,215,1.0,23.0,88,0.00,,,0.07,Wunderground v.1.15,2013-02-05 05:40:00,
2013-02-04 23:50:00,48.6,45.2,29.68,SW,215,1.0,1.0,88,0.00,,,0.07,Wunderground v.1.15,2013-02-05 05:50:00,
2013-02-04 23:55:00,48.6,45.2,29.68,SW,215,0.0,23.0,88,0.00,,,0.07,Wunderground v.1.15,2013-02-05 05:55:00,